MEA345 LSGG-LSZH

Flight info

Callsign MEA345
Flight time 0h 36m
Altitude 17000
Route SOSAL N871 BERSU
Aircraft A21N/M-SDE3FGHIRWY/LB1

Departure

Time 2026-02-21 05:07
Airport Geneva International Airport (LSGG)

Arrival

Time 2026-02-21 05:44
Airport Zürich Airport (LSZH)
Time Latitude Longitude Altitude Speed Heading
2026-02-21 04:57 46.23223 6.10505 1393 ft 0 kts 271°
2026-02-21 05:00 46.23224 6.10478 1393 ft 5 kts 276°
2026-02-21 05:00 46.23257 6.10457 1394 ft 7 kts 16°
2026-02-21 05:00 46.23307 6.10506 1392 ft 10 kts 43°
2026-02-21 05:00 46.23368 6.10594 1391 ft 14 kts 43°
2026-02-21 05:01 46.23455 6.10712 1388 ft 19 kts 45°
2026-02-21 05:01 46.23557 6.10862 1386 ft 22 kts 45°
2026-02-21 05:01 46.23672 6.11031 1383 ft 24 kts 45°
2026-02-21 05:01 46.23792 6.11208 1381 ft 24 kts 45°
2026-02-21 05:02 46.23911 6.11383 1378 ft 24 kts 45°
2026-02-21 05:02 46.24027 6.11552 1375 ft 23 kts 45°
2026-02-21 05:02 46.24141 6.11720 1372 ft 22 kts 45°
2026-02-21 05:02 46.24248 6.11877 1370 ft 21 kts 45°
2026-02-21 05:03 46.24356 6.12035 1369 ft 22 kts 45°
2026-02-21 05:03 46.24469 6.12200 1368 ft 23 kts 45°
2026-02-21 05:03 46.24577 6.12360 1368 ft 21 kts 45°
2026-02-21 05:03 46.24679 6.12510 1368 ft 20 kts 45°
2026-02-21 05:04 46.24766 6.12636 1367 ft 11 kts 40°
2026-02-21 05:04 46.24841 6.12685 1366 ft 13 kts 15°
2026-02-21 05:04 46.24911 6.12717 1366 ft 3 kts 18°
2026-02-21 05:04 46.24912 6.12717 1366 ft 0 kts 18°
2026-02-21 05:06 46.24938 6.12729 1366 ft 12 kts 17°
2026-02-21 05:06 46.25005 6.12671 1366 ft 9 kts 270°
2026-02-21 05:06 46.24990 6.12631 1366 ft 0 kts 223°
2026-02-21 05:07 46.24960 6.12591 1366 ft 32 kts 224°
2026-02-21 05:07 46.24588 6.12044 1369 ft 115 kts 226°
2026-02-21 05:07 46.23866 6.11001 1498 ft 167 kts 224°
2026-02-21 05:07 46.23074 6.09847 2339 ft 165 kts 225°
2026-02-21 05:08 46.22298 6.08685 3261 ft 164 kts 224°
2026-02-21 05:08 46.21479 6.07483 3927 ft 177 kts 224°
2026-02-21 05:08 46.20580 6.06185 4533 ft 195 kts 225°
2026-02-21 05:08 46.19572 6.04711 5122 ft 214 kts 228°
2026-02-21 05:09 46.18494 6.03129 5806 ft 231 kts 228°
2026-02-21 05:09 46.17306 6.01381 6484 ft 247 kts 227°
2026-02-21 05:09 46.16108 5.99652 7536 ft 246 kts 226°
2026-02-21 05:09 46.14625 5.98444 8387 ft 259 kts 194°
2026-02-21 05:10 46.12825 5.98668 9189 ft 270 kts 156°
2026-02-21 05:10 46.11380 6.00354 9957 ft 271 kts 119°
2026-02-21 05:10 46.10793 6.02837 10680 ft 264 kts 84°
2026-02-21 05:10 46.11143 6.05346 11433 ft 255 kts 59°
2026-02-21 05:11 46.11940 6.07554 12212 ft 251 kts 47°
2026-02-21 05:11 46.13006 6.09603 12745 ft 262 kts 43°
2026-02-21 05:11 46.14184 6.11703 13177 ft 280 kts 42°
2026-02-21 05:11 46.15431 6.13949 13589 ft 298 kts 43°
2026-02-21 05:12 46.16743 6.16379 14095 ft 312 kts 44°
2026-02-21 05:12 46.18097 6.18910 14473 ft 329 kts 44°
2026-02-21 05:12 46.19524 6.21598 14788 ft 346 kts 44°
2026-02-21 05:12 46.21023 6.24435 15095 ft 363 kts 45°
2026-02-21 05:13 46.22563 6.27357 15432 ft 377 kts 46°
2026-02-21 05:13 46.24148 6.30387 16038 ft 382 kts 45°
2026-02-21 05:13 46.25768 6.33486 16631 ft 387 kts 45°
2026-02-21 05:13 46.27375 6.36559 17212 ft 391 kts 45°
2026-02-21 05:14 46.29019 6.39705 17797 ft 394 kts 45°
2026-02-21 05:14 46.30674 6.42870 18403 ft 397 kts 45°
2026-02-21 05:14 46.32344 6.46063 19037 ft 398 kts 45°
2026-02-21 05:14 46.34005 6.49241 19543 ft 402 kts 45°
2026-02-21 05:15 46.35709 6.52497 20095 ft 404 kts 44°
2026-02-21 05:15 46.37478 6.55702 20628 ft 406 kts 42°
2026-02-21 05:15 46.39267 6.58870 21145 ft 407 kts 42°
2026-02-21 05:15 46.41065 6.62053 21368 ft 409 kts 42°
2026-02-21 05:16 46.42849 6.65224 21378 ft 405 kts 43°
2026-02-21 05:16 46.44636 6.68405 21380 ft 407 kts 43°
2026-02-21 05:16 46.46425 6.71600 21382 ft 408 kts 43°
2026-02-21 05:16 46.48220 6.74812 21377 ft 407 kts 43°
2026-02-21 05:17 46.50001 6.78014 21394 ft 406 kts 43°
2026-02-21 05:17 46.51772 6.81198 21384 ft 407 kts 43°
2026-02-21 05:17 46.53563 6.84417 21375 ft 406 kts 43°
2026-02-21 05:17 46.55336 6.87613 21373 ft 408 kts 43°
2026-02-21 05:18 46.57118 6.90817 21358 ft 407 kts 43°
2026-02-21 05:18 46.58912 6.94037 21363 ft 408 kts 43°
2026-02-21 05:18 46.60680 6.97214 21355 ft 407 kts 43°
2026-02-21 05:18 46.62452 7.00400 21356 ft 407 kts 43°
2026-02-21 05:19 46.64238 7.03620 21358 ft 409 kts 43°
2026-02-21 05:19 46.66020 7.06836 21346 ft 408 kts 43°
2026-02-21 05:19 46.67809 7.10070 21360 ft 407 kts 43°
2026-02-21 05:19 46.69601 7.13308 21377 ft 408 kts 43°
2026-02-21 05:20 46.71375 7.16519 21372 ft 407 kts 43°
2026-02-21 05:20 46.73148 7.19739 21359 ft 408 kts 43°
2026-02-21 05:20 46.74833 7.22798 21375 ft 408 kts 43°
2026-02-21 05:20 46.76613 7.26031 21348 ft 410 kts 43°
2026-02-21 05:21 46.78410 7.29299 21336 ft 409 kts 43°
2026-02-21 05:21 46.80199 7.32564 21345 ft 407 kts 43°
2026-02-21 05:21 46.81957 7.35770 21351 ft 408 kts 43°
2026-02-21 05:21 46.83723 7.38995 21351 ft 409 kts 43°
2026-02-21 05:22 46.85498 7.42243 21355 ft 410 kts 43°
2026-02-21 05:22 46.87288 7.45521 21357 ft 410 kts 43°
2026-02-21 05:22 46.89065 7.48789 21363 ft 411 kts 43°
2026-02-21 05:22 46.90815 7.52013 21352 ft 410 kts 43°
2026-02-21 05:23 46.92595 7.55289 21109 ft 409 kts 43°
2026-02-21 05:23 46.94349 7.58522 20849 ft 408 kts 43°
2026-02-21 05:23 46.96114 7.61779 20602 ft 406 kts 43°
2026-02-21 05:23 46.97852 7.64990 20263 ft 406 kts 43°
2026-02-21 05:24 46.99630 7.68259 20029 ft 405 kts 44°
2026-02-21 05:24 47.01412 7.71531 19816 ft 406 kts 43°
2026-02-21 05:24 47.03166 7.74758 19419 ft 402 kts 44°
2026-02-21 05:24 47.04899 7.77927 18712 ft 399 kts 44°
2026-02-21 05:25 47.06620 7.81125 17925 ft 402 kts 44°
2026-02-21 05:25 47.08357 7.84401 16833 ft 409 kts 45°
2026-02-21 05:25 47.10036 7.87549 15998 ft 409 kts 45°
2026-02-21 05:25 47.11801 7.90803 15291 ft 403 kts 43°
2026-02-21 05:26 47.13884 7.93372 14632 ft 384 kts 25°
2026-02-21 05:26 47.16273 7.94875 13990 ft 369 kts 10°
2026-02-21 05:26 47.21217 7.96267 12695 ft 360 kts
2026-02-21 05:27 47.23669 7.96902 12017 ft 359 kts
2026-02-21 05:27 47.26110 7.97543 11607 ft 349 kts
2026-02-21 05:27 47.28436 7.98162 11264 ft 338 kts
2026-02-21 05:27 47.30672 7.98765 11032 ft 311 kts
2026-02-21 05:28 47.32710 7.99323 10841 ft 284 kts
2026-02-21 05:28 47.34571 7.99829 10672 ft 268 kts
2026-02-21 05:28 47.36389 8.00307 10509 ft 264 kts
2026-02-21 05:28 47.38191 8.00784 10368 ft 261 kts
2026-02-21 05:29 47.39976 8.01256 10029 ft 262 kts
2026-02-21 05:29 47.41783 8.01741 9631 ft 264 kts
2026-02-21 05:29 47.43596 8.02231 9228 ft 265 kts
2026-02-21 05:29 47.45430 8.02724 8832 ft 265 kts
2026-02-21 05:30 47.47243 8.03220 8552 ft 268 kts
2026-02-21 05:30 47.49011 8.04327 8539 ft 285 kts 31°
2026-02-21 05:30 47.50334 8.06613 8591 ft 304 kts 59°
2026-02-21 05:30 47.50845 8.09696 9222 ft 318 kts 87°
2026-02-21 05:31 47.50447 8.12909 9908 ft 316 kts 112°
2026-02-21 05:31 47.49408 8.15808 10276 ft 318 kts 120°
2026-02-21 05:31 47.48248 8.18544 10346 ft 317 kts 123°
2026-02-21 05:31 47.47010 8.21243 10343 ft 316 kts 131°
2026-02-21 05:32 47.45342 8.23323 10343 ft 312 kts 149°
2026-02-21 05:32 47.43496 8.25007 10350 ft 310 kts 153°
2026-02-21 05:32 47.41641 8.26615 10345 ft 309 kts 153°
2026-02-21 05:32 47.39771 8.28213 10330 ft 308 kts 153°
2026-02-21 05:33 47.37905 8.29791 10365 ft 308 kts 153°
2026-02-21 05:33 47.36053 8.31353 10361 ft 308 kts 153°
2026-02-21 05:33 47.34179 8.32937 10345 ft 309 kts 153°
2026-02-21 05:33 47.32329 8.34513 10342 ft 310 kts 152°
2026-02-21 05:34 47.30655 8.36521 10265 ft 317 kts 130°
2026-02-21 05:34 47.29523 8.39347 9838 ft 318 kts 115°
2026-02-21 05:34 47.28612 8.42309 9455 ft 316 kts 114°
2026-02-21 05:34 47.27675 8.45183 9094 ft 313 kts 117°
2026-02-21 05:35 47.26627 8.47947 8710 ft 309 kts 127°
2026-02-21 05:35 47.25089 8.50102 8318 ft 301 kts 151°
2026-02-21 05:35 47.23265 8.51474 7973 ft 295 kts 158°
2026-02-21 05:35 47.21373 8.52745 7610 ft 291 kts 159°
2026-02-21 05:36 47.19595 8.54112 7227 ft 291 kts 144°
2026-02-21 05:36 47.18393 8.56458 6852 ft 290 kts 109°
2026-02-21 05:36 47.18247 8.59325 6533 ft 282 kts 74°
2026-02-21 05:36 47.19029 8.61873 6338 ft 270 kts 56°
2026-02-21 05:37 47.19938 8.64239 6357 ft 259 kts 58°
2026-02-21 05:37 47.20735 8.66455 6316 ft 245 kts 60°
2026-02-21 05:37 47.21513 8.68593 6323 ft 228 kts 50°
2026-02-21 05:37 47.22694 8.69889 6199 ft 207 kts 10°
2026-02-21 05:38 47.24009 8.69894 5948 ft 194 kts 338°
2026-02-21 05:38 47.25241 8.69136 5641 ft 192 kts 329°
2026-02-21 05:38 47.26455 8.68233 5298 ft 194 kts 329°
2026-02-21 05:38 47.27624 8.67367 5160 ft 182 kts 330°
2026-02-21 05:39 47.28721 8.66582 5116 ft 168 kts 330°
2026-02-21 05:39 47.29790 8.65827 5026 ft 173 kts 330°
2026-02-21 05:39 47.30877 8.65072 4771 ft 172 kts 330°
2026-02-21 05:39 47.31953 8.64334 4519 ft 171 kts 330°
2026-02-21 05:40 47.33025 8.63597 4270 ft 169 kts 332°
2026-02-21 05:40 47.34080 8.62875 4018 ft 166 kts 330°
2026-02-21 05:40 47.35110 8.62169 3771 ft 162 kts 331°
2026-02-21 05:40 47.36120 8.61476 3521 ft 158 kts 332°
2026-02-21 05:41 47.37123 8.60788 3322 ft 159 kts 331°
2026-02-21 05:41 47.38129 8.60095 3075 ft 160 kts 332°
2026-02-21 05:41 47.39128 8.59408 2823 ft 161 kts 331°
2026-02-21 05:41 47.40117 8.58727 2587 ft 151 kts 333°
2026-02-21 05:42 47.41034 8.58097 2325 ft 140 kts 332°
2026-02-21 05:42 47.41895 8.57505 2148 ft 133 kts 331°
2026-02-21 05:42 47.42732 8.56928 1951 ft 131 kts 331°
2026-02-21 05:42 47.43549 8.56365 1750 ft 131 kts 331°
2026-02-21 05:43 47.44381 8.55792 1558 ft 132 kts 332°
2026-02-21 05:43 47.45211 8.55224 1418 ft 129 kts 332°
2026-02-21 05:43 47.45941 8.54712 1390 ft 98 kts 335°
2026-02-21 05:43 47.46446 8.54366 1386 ft 65 kts 335°
2026-02-21 05:44 47.46829 8.54103 1384 ft 43 kts 335°
2026-02-21 05:44 47.46985 8.54032 1385 ft 13 kts 24°
2026-02-21 05:44 47.47026 8.54150 1385 ft 13 kts 90°
2026-02-21 05:44 47.46979 8.54268 1385 ft 14 kts 142°
2026-02-21 05:45 47.46880 8.54365 1385 ft 19 kts 155°
2026-02-21 05:45 47.46747 8.54443 1385 ft 20 kts 160°
2026-02-21 05:45 47.46616 8.54530 1386 ft 20 kts 156°
2026-02-21 05:45 47.46492 8.54616 1387 ft 19 kts 152°
2026-02-21 05:46 47.46374 8.54698 1388 ft 18 kts 156°
2026-02-21 05:46 47.46258 8.54776 1388 ft 18 kts 155°
2026-02-21 05:46 47.46141 8.54856 1390 ft 18 kts 155°
2026-02-21 05:46 47.46035 8.54930 1391 ft 15 kts 149°
2026-02-21 05:47 47.46007 8.55018 1392 ft 7 kts 69°
2026-02-21 05:47 47.46042 8.55078 1392 ft 8 kts 62°
2026-02-21 05:47 47.46061 8.55141 1393 ft 5 kts 66°
2026-02-21 05:47 47.46070 8.55172 1393 ft 0 kts 65°